FENGYUN 1C DEB

Satellite information

Favourite Embed

Satellite Type and Status

DEBRISIN ORBIT

Key statistics

Satellite FENGYUN 1C DEB at a glance.

Uptime

9615

Days in orbit

Revolutions

≈ 14.2

Per day

Orbit

SSO

Sun Synchronous Orbit

Inclination

98.8

Latest

Satellite identification and parameters

Extended collection of information and parameters for FENGYUN 1C DEB.

Object identification

Identified? True

Debris? True

Object name: FENGYUN 1C DEB

International designator: 1999-025EYC

Object number (NORAD): 41825

Object ID (CCSDS): 41825

Country: PEOPLES REPUBLIC OF CHINA (PRC)

Current information (Y/N): Y

RCS size: SMALL

Orbital parameters

Period: 101.12 minutes

Inclination: 98.7506 deg

SMA: 7189.824 km

Apoapsis: 852.968 km

Periapsis: 770.411 km

RAAN: 311.6242 deg

Eccentricy: 0.00574124

Argument of periapsis: 164.1577 deg

Mean anomaly: 196.1414 deg

Mean motion: 14.24050347 rev/day

Mean motion (dot): 0.00004421 rev/day2

B* drag term: 0.0019091351 1/REarth

Two-line elements (TLE)

Creation date: Aug. 30, 2025, 11:24 a.m.

Reference frame: TEME

Reference center: EARTH

Epoch: Aug. 30, 2025, 3:28 a.m. UTC

TLE line 0: 0 FENGYUN 1C DEB

TLE line 1: 1 41825U 99025EYC 25242.14509053 .00004421 00000-0 19091-2 0 9990

TLE line 2: 2 41825 98.7506 311.6242 0057412 164.1577 196.1414 14.24050347458593

Live tracking on map

Real-time ground track for satellite FENGYUN 1C DEB.

In-orbit conjunctions

A list of the most updated potential collisions computed for object FENGYUN 1C DEB.

Target Orbit TCA Probability of collision Miss distance Type
QUAKESAT SSO 2025-08-23 18:28:27 0.0002062148 580.0 (m) PAYLOAD
IRS 1D SSO 2024-09-07 15:48:33 0.0001637089 442.0 (m) PAYLOAD

Associated space launch

Chinese polar orbiting meteorological satellite

FENGYUN 1C DEB was lifted into orbit during the mission ‘Long March 4B | Feng Yun 1C’, on board a Long March 4B space rocket.

The launch took place on May 10, 1999, 1:33 a.m. from Launch Complex 7.

For more information about the launch, click the button.

Launch to space Long March 4B | Feng Yun 1C
Long March 4B | Feng Yun 1C

Agency: N/A

Status: Launch Successful

Launch date: May 10, 1999, 1:33 a.m. UTC

Rocket: Long March 4B

Launch pad: Launch Complex 7

Location: Taiyuan Satellite Launch Center, People's Republic of China

...

Latest news about this satellite

There are no fresh news available about this satellite. Check back as we update our databases every day.


Newsletter sign-up

Weekly statistics, charts and insights to help you stay on top of the space industry.